Back to catalog

TSX-5

AliveMilitaryLEO
NORAD 26374·PAYLOAD·🇺🇸 United States

Launched Jun 7, 2000 from Vandenberg Space Force Base

Loading…

Next Passes (next 24 hours)

TLE

FreshSource: Space-Track

Epoch: Sep 14, 2026, 08:29 UTC

1 26374U 00030A   26257.35407484  .00006300  00000-0  31599-3 0  9991
2 26374  68.9110 115.4104 0425750 307.1449  49.1493 14.63485457335598

Track TSX-5 in real time with AllMySat

Download on the App Store